Find Starlink 3625

NORAD ID: 51777 Int'l Des: 2022-017 Owner: SPXS Country: US Constellation: starlink operational
LEOCIRCULAR

实时位置

正在加载3D地球...

关于 Starlink 3625

正在加载描述...

即将过境

Passes for default location (London). Set your location on the main map for personalized predictions.

高度历史

Loading altitude history...

两行轨道根数

1 51777U 22017K 26127.15226920 .00000425 00000-0 44818-4 0 9994
2 51777 53.2184 76.6439 0001558 90.4781 269.6389 15.08828362231423
Epoch: May 7, 2026 • Age: 15 hours

当前状态

高度 544.7 km
速度 7.60 km/s
星下点 50.66°N, 46.74°E
发射日期 Feb 25, 2022
运行时间 4.1 years
类型 internet

技术详情

分类 Payload
质量 297.00 kg
干质量 275.00 kg
总质量 297.00 kg
长度 0.20 m
直径 2.80 m
跨度 9.00 m
形状 Box + pan
制造商 SPXS
平台类型 Starlink
阶段状态 In Orbit
所有者/国家 SPXS/US

Most Searched